Flag for Germany Weather past 2 weeks in Cottbus, Brandenburg, Germany

Now
30 °F

Overcast.


Feels Like: 30 °F
Forecast: 20 / 29 °F
Wind: 1 mph from West

Location: Cottbus

Current Time: Dec 26, 2014 at 9:01:22 AM

Latest Report: Dec 26, 2014 at 8:00 AM


Visibility: 13 mi

Pressure: 30.30 "Hg

Humidity: 97%

Dew point: 29 °F

Location of CottbusLocation

Historic Weather in Cottbus — Graph

°F

Cottbus temperature yesterday

Maximum temperature yesterday: 43 °F (at 1:00 PM)
Minimum temperature yesterday: 36 °F (at 8:00 AM)
Average temperature yesterday: 40 °F

Past Weeks' High & Low Weather Summary

 TemperatureHumidityPressure
High55 °F (Dec 19, 8:00 AM)100% (Dec 14, 9:00 PM)30.30 "Hg (Dec 14, 9:00 PM)
Low30 °F (Dec 26, 8:00 AM)60% (Dec 15, 2:00 PM)29.47 "Hg (Dec 12, 7:00 PM)
Average44 °F82%29.89 "Hg
* Reported Dec 11 8:00 AM — Dec 26 8:00 AM, Cottbus, Weather by CustomWeather, © 2014

Note: Actual official high and low records may vary slightly from our data, if they occured in-between our weather recording intervals... More about our weather records

Advertising

Cottbus weather history for previous 24 hours

 ConditionsComfort  
Time TempWeatherWind HumidityBarometerVisibility
8:00 AM
Dec 26
30 °FOvercast.1 mph97%30.30 "Hg12 mi
7:00 AM31 °FOvercast.2 mph96%30.28 "Hg15 mi
6:00 AM30 °FOvercast.1 mph96%30.27 "Hg14 mi
5:00 AM31 °FOvercast.1 mph94%30.26 "Hg14 mi
4:00 AM33 °FLow clouds.3 mph92%30.24 "Hg16 mi
3:00 AM33 °FOvercast.3 mph90%30.22 "Hg22 mi
2:00 AM34 °FOvercast.5 mph92%30.17 "Hg22 mi
1:00 AM34 °FLight snow. Low clouds.5 mph95%30.12 "Hg9 mi
12:00 AM35 °FLight rain. Low clouds.6 mph95%30.07 "Hg4 mi
11:00 PM
Dec 25
37 °FLight rain. Low clouds.6 mph90%30.03 "Hg7 mi
10:00 PM40 °FOvercast.6 mph72%30.01 "Hg22 mi
9:00 PM40 °FOvercast.7 mph70%30.01 "Hg22 mi
8:00 PM41 °FOvercast.8 mph69%30.01 "Hg22 mi
7:00 PM41 °FPassing clouds.6 mph66%30.01 "Hg22 mi
6:00 PM41 °FOvercast.7 mph70%30.01 "Hg22 mi
5:00 PM40 °FPassing clouds.5 mph79%30.00 "Hg19 mi
4:00 PM40 °FLight freezing rain. Passing clouds.6 mph82%30.00 "Hg4 mi
3:00 PM43 °FPartly sunny.8 mph73%29.98 "Hg25 mi
2:00 PM43 °FLow clouds.8 mph71%29.98 "Hg25 mi
1:00 PM43 °FOvercast.8 mph67%29.99 "Hg31 mi
12:00 PM42 °FOvercast.6 mph72%30.00 "Hg28 mi
11:00 AM42 °FOvercast.7 mph71%30.01 "Hg31 mi
10:00 AM40 °FOvercast.6 mph76%30.02 "Hg31 mi
9:00 AM38 °FOvercast.5 mph83%30.02 "Hg22 mi
Weather by CustomWeather, © 2014

See weather overviewHow to use our weather pages